Regional Weather Roundup
Issued by NWS

Home | Current Version | Previous Version | Graphics & Text | Print | Product List | Glossary Off
Versions: 1 2 3 4 5 6 7 8 9 10 11 12 13 14 15 16 17 18 19 20 21 22 23 24 25 26 27 28 29 30 31 32 33 34 35 36 37 38 39 40 41 42 43 44 45 46 47 48 49 50

000
ASUS43 KMKX 171921
RWRWI

WISCONSIN REGIONAL WEATHER ROUNDUP
NATIONAL WEATHER SERVICE MILWAUKEE/SULLIVAN WI
200 PM CDT THU AUG 17 2017

NOTE: "FAIR" INDICATES FEW OR NO CLOUDS BELOW 12,000 FEET WITH NO
SIGNIFICANT WEATHER AND/OR OBSTRUCTIONS TO VISIBILITY.

WIZ001-002-006>008-014>016-023>028-172000-
NORTHWEST WISCONSIN

CITY           SKY/WX    TMP DP  RH WIND       PRES   REMARKS
SUPERIOR ARPT    N/A     64  63  96 N8        29.65S
ASHLAND        CLOUDY    65  63  93 N10       29.58S
HAYWARD        CLOUDY    65  62  90 VRB5      29.61R FOG
SIREN          LGT RAIN  63  61  94 N10       29.67R
CUMBERLAND     CLOUDY    63  61  94 NW13G18   29.64R FOG
RICE LAKE      CLOUDY    65  63  91 NW16      29.63R
CHETEK           N/A     71  67  88 NW9G18    29.60R
LADYSMITH      CLOUDY    74  67  78 W15G21    29.58S
EAU CLAIRE     CLOUDY    71  67  87 W18G30    29.59R
MENOMONIE      CLOUDY    69  64  83 W18G26    29.63R
NEW RICHMOND   CLOUDY    64  61  91 NW12G18   29.68R
OSCEOLA        CLOUDY    65  65 100 NW7       29.71R
$$

WIZ003>005-009-010-017-018-172000-
NORTH CENTRAL WISCONSIN

CITY           SKY/WX    TMP DP  RH WIND       PRES   REMARKS
MANITOWISH WTR CLOUDY    67  67 100 W3        29.57F
ARBOR VITAE    PTSUNNY   67  65  91 S8        29.57S
WOODRUFF       PTSUNNY   67  65  91 S8        29.57S
RHINELANDER    LGT RAIN  67  67 100 S9        29.57F FOG
EAGLE RIVER    CLOUDY    71  61  71 SW6       29.56F
LAND O LAKES   CLOUDY    73  64  73 S5        29.57F
PHILLIPS       CLOUDY    67  66  97 NE3       29.55F FOG
TOMAHAWK       HVY RAIN  66  64  94 CALM      29.56F
MEDFORD        CLOUDY    69  66  90 W10       29.54S
MERRILL        NOT AVBL
$$

WIZ029-030-035-036-043>047-172000-
CENTRAL WISCONSIN

CITY           SKY/WX    TMP DP  RH WIND       PRES   REMARKS
WAUSAU         LGT RAIN  67  66  97 S13       29.53F FOG
MOSINEE        LGT RAIN  66  66 100 SW17      29.57F FOG
MARSHFIELD     LGT RAIN  69  66  90 SW15G22   29.55S
STEVENS POINT  CLOUDY    70  65  86 SW20G26   29.57F
WAUPACA        CLOUDY    73  67  82 S20       29.59F HAZE
WAUTOMA        CLOUDY    70  67  90 SW14G21   29.61S
WISC RAPIDS    CLOUDY    72  67  84 SW17G24   29.59F
CAMP DOUGLAS   PTSUNNY   73  64  73 SW21G30   29.61S
$$

WIZ011>013-019>022-031-037>040-048>050-172000-
NORTHEAST WISCONSIN

CITY           SKY/WX    TMP DP  RH WIND       PRES   REMARKS
ANTIGO         LGT RAIN  66  65  97 S13G24    29.58F
SHAWANO        CLOUDY    74  64  72 SW8G18    29.56F
OCONTO         PTSUNNY   80  66  62 SW10G16   29.56F HX  81
STURGEON BAY   CLOUDY    74  70  87 S13       29.59F
GREEN BAY      PTSUNNY   76  69  79 S12G20    29.59F
MANITOWOC      MOSUNNY   79  65  62 SW17        N/A  HX  81
APPLETON       PTSUNNY   75  61  60 SW18G28   29.59F
CLINTONVILLE   CLOUDY    73  63  68 S10G21    29.57F
OSHKOSH        PTSUNNY   77  65  66 SW16G23   29.60F
$$

WIZ032>034-041-042-053>061-172000-
SOUTHWEST WISCONSIN

CITY           SKY/WX    TMP DP  RH WIND       PRES   REMARKS
LA CROSSE      PTSUNNY   76  65  68 W17       29.63R
SPARTA         CLOUDY    73  64  75 W12G18    29.63R
VIROQUA        CLOUDY    68  67  97 W15G24    29.68R
BOSCOBEL       CLOUDY    74  65  73 W17G25    29.68R
PRAIRIE DU CHI CLOUDY    74  62  66 W21G28    29.70R
PLATTEVILLE    CLOUDY    72  71  98 W15G26    29.72S
$$

WIZ056-057-062-063-064-067-068-172000-
SOUTH CENTRAL WISCONSIN

CITY           SKY/WX    TMP DP  RH WIND       PRES   REMARKS
REEDSBURG      CLOUDY    73  67  82 W13G25    29.64S
BARABOO/DELLS  CLOUDY    70  65  83 W15G25    29.64S
LONE ROCK      CLOUDY    73  68  84 W18G31    29.66S
MINERAL POINT  CLOUDY    72  70  94 W15G30    29.71R
MADISON        RAIN      70  66  87 SW8       29.67S FOG
MIDDLETON      CLOUDY    74  69  86 W9        29.67S
WATERTOWN      PTSUNNY   77  66  69 SW18      29.66F
MONROE         CLOUDY    73  63  68 SW25G33   29.71F
JANESVILLE     PTSUNNY   77  66  69 SW16G23   29.70F
$$

WIZ051-052-058>065-066-070>072-172000-
SOUTHEAST WISCONSIN

CITY           SKY/WX    TMP DP  RH WIND       PRES   REMARKS
MILWAUKEE      PTSUNNY   80  70  71 W18G26    29.67F HX  83
WAUKESHA       PTSUNNY   75  63  64 W18G32    29.70S
MILWAUKEE/TIMM PTSUNNY   79  61  53 SW20G30   29.67F HX  80
RACINE         SUNNY     80  70  71 SW20G28   29.69F HX  83
KENOSHA        MOSUNNY   80  67  64 W21G32    29.69F HX  82
FOND DU LAC    MOSUNNY   77  62  59 SW15G22   29.62F
SHEBOYGAN      PTSUNNY   79  68  69 SW16G26   29.63F HX  81
WEST BEND      MOSUNNY   77  66  69 SW18G25   29.65F
JUNEAU         CLOUDY    75  64  69 S16G23    29.67S
$$

LSZ147-162-172000-
LAKE SUPERIOR

STATION/POSITION TIME  TEMP    WIND        PRES    WAVE
                       AIR SEA DIR/SP/G            HT/PER
                 (UTC) (F)     (DEG/KT/KT) (MB)    (FT/S)
W MID LAKE BUOY  1850   60 60   30/ 17/ 21 1000.8F   5/ 6
DEVILS ISLAND    1900   60      40/ 23/ 26 1002.0R
PORT WING        1740   54      30/  8/  9 1002.7
SAXON HARBOR     1900   64     340/  4/ 15 1001.0
$$

LMZ867-665-643>646-172000-
LAKE MICHIGAN

STATION/POSITION TIME  TEMP    WIND        PRES    WAVE
                       AIR SEA DIR/SP/G            HT/PER
                 (UTC) (F)     (DEG/KT/KT) (MB)    (FT/S)
S GREEN BAY BUOY 1900   75 72  200/ 14/ 17 1001.2
N MID LAKE BUOY  1850   69 68  170/ 17/ 21 1002.4F   3/ 5
NORTHPORT PIER   1840   72     160/ 11/ 16 1002.0F
KEWAUNEE LAKESHO 1854   74     170/ 14/ 16 1001.7F
SHEBOYGAN LAKESH 1900   76     200/ 17/ 21 1002.4F
PORT WASHINGTON  1830   81     240/ 12/ 17 1004.4F
ATWATER BUOY     1809   74 71  230/ 12/ 16 1005.0F
MILWAUKEE LAKESH 1900   79     260/ 17/ 25   N/A
S MID LAKE BUOY  1850   73 72  200/ 17/ 19 1005.4F   3/ 5
KENOSHA   LAKESH 1900   78     250/ 16/ 21 1005.1
$$

TC  - TEMPERATURE IN CELSIUS
VSB - VISIBILITY IN STATUTE MILES
WCI - WIND CHILL INDEX
HX  - HEAT INDEX





USA.gov is the U.S. government's official web portal to all federal, state and local government web resources and services.